,,PA_Meas_PMT16A,,PR_Meas_QMR101_102,,RH_Meas_QMH101,,SR_Meas_QMS101,,TA_Meas_QMH101,,GenWind,,GenWind,
time,status,PA,status,PR,status,RH,status,SR,status,TA,status,DirAvg,status,SpdAvg,
2016-05-26, 08:35:04,VALID,919.979,VALID,0,INVALID,112.979,VALID,122.053,VALID,21.3396,VALID,34,VALID,0,
2016-05-26, 08:36:04,VALID,919.968,VALID,0,INVALID,113.002,VALID,124.417,VALID,21.3608,VALID,41,VALID,0.572656,
2016-05-26, 08:37:04,VALID,919.969,VALID,0,INVALID,112.987,VALID,130.648,VALID,21.3591,VALID,24,VALID,0.141406,
2016-05-26, 08:38:04,VALID,919.962,VALID,0,INVALID,112.88,VALID,137.847,VALID,21.3998,VALID,33,VALID,0,
2016-05-26, 08:39:04,VALID,919.992,VALID,0,INVALID,112.705,VALID,143.649,VALID,21.4177,VALID,17,VALID,0,
2016-05-26, 08:40:04,VALID,920.014,VALID,0,INVALID,112.4,VALID,143.971,VALID,21.4388,VALID,199,VALID,0,
2016-05-26, 08:41:04,VALID,920.043,VALID,0,INVALID,112.316,VALID,145.69,VALID,21.4567,VALID,35,VALID,0,
2016-05-26, 08:42:04,VALID,920.027,VALID,0,INVALID,112.079,VALID,145.26,VALID,21.4778,VALID,307,VALID,0.08125,
2016-05-26, 08:43:04,VALID,920.003,VALID,0,INVALID,111.485,VALID,150.203,VALID,21.4372,VALID,341,VALID,0,
2016-05-26, 08:44:04,VALID,919.992,VALID,0,INVALID,111.836,VALID,155.36,VALID,21.4778,VALID,29,VALID,0,
2016-05-26, 08:45:04,VALID,919.992,VALID,0,INVALID,112.118,VALID,156.649,VALID,21.4957,VALID,360,VALID,0,
2016-05-26, 08:46:04,VALID,919.961,VALID,0,INVALID,112.095,VALID,162.451,VALID,21.5347,VALID,289,VALID,0,
2016-05-26, 08:47:04,VALID,919.999,VALID,0,INVALID,112.278,VALID,166.104,VALID,21.5932,VALID,357,VALID,0,
2016-05-26, 08:48:04,VALID,919.97,VALID,0,INVALID,111.98,VALID,171.798,VALID,21.6534,VALID,209,VALID,0,
2016-05-26, 08:49:04,VALID,919.963,VALID,0,INVALID,111.584,VALID,163.955,VALID,21.6128,VALID,5,VALID,0,
2016-05-26, 08:50:04,VALID,919.974,VALID,0,INVALID,111.66,VALID,148.376,VALID,21.6323,VALID,16,VALID,0,
2016-05-26, 08:51:04,VALID,920.001,VALID,0,INVALID,111.531,VALID,141.285,VALID,21.6518,VALID,33,VALID,0,
2016-05-26, 08:52:04,VALID,920.001,VALID,0,INVALID,111.614,VALID,146.765,VALID,21.7103,VALID,16,VALID,0,
2016-05-26, 08:53:04,VALID,920.017,VALID,0,INVALID,111.508,VALID,154.285,VALID,21.7493,VALID,4,VALID,0,
2016-05-26, 08:54:04,VALID,920.023,VALID,0,INVALID,110.982,VALID,167.931,VALID,21.7688,VALID,14,VALID,0,
2016-05-26, 08:55:04,VALID,920.015,VALID,0,INVALID,110.639,VALID,170.724,VALID,21.7688,VALID,28,VALID,0,
2016-05-26, 08:56:04,VALID,920.013,VALID,0,INVALID,109.953,VALID,163.203,VALID,21.7688,VALID,334,VALID,0,
2016-05-26, 08:57:04,VALID,920.055,VALID,0,INVALID,110.349,VALID,151.492,VALID,21.7883,VALID,38,VALID,0,
2016-05-26, 08:58:04,VALID,920.07,VALID,0,INVALID,110.89,VALID,164.385,VALID,21.8062,VALID,1,VALID,0,
2016-05-26, 08:59:04,VALID,920.075,VALID,0,INVALID,110.837,VALID,169.65,VALID,21.8859,VALID,18,VALID,0,
2016-05-26, 09:00:04,VALID,920.089,VALID,0,INVALID,110.806,VALID,172.443,VALID,21.9038,VALID,59,VALID,0,
2016-05-26, 09:01:04,VALID,920.133,VALID,0,INVALID,110.227,VALID,160.195,VALID,21.9444,VALID,306,VALID,0,
2016-05-26, 09:02:04,VALID,920.156,VALID,0,INVALID,110.25,VALID,157.079,VALID,21.9444,VALID,14,VALID,0,
2016-05-26, 09:03:04,VALID,920.152,VALID,0,INVALID,109.266,VALID,143.326,VALID,21.9444,VALID,272,VALID,0.291406,
2016-05-26, 09:04:04,VALID,920.15,VALID,0,INVALID,109.693,VALID,135.054,VALID,21.9249,VALID,37,VALID,0.00742187,
2016-05-26, 09:05:04,VALID,920.187,VALID,0,INVALID,110.097,VALID,143.004,VALID,21.9249,VALID,15,VALID,0,
2016-05-26, 09:06:04,VALID,920.161,VALID,0,INVALID,110.646,VALID,143.219,VALID,21.9428,VALID,17,VALID,0,
2016-05-26, 09:07:04,VALID,920.163,VALID,0,INVALID,110.418,VALID,134.516,VALID,21.9428,VALID,19,VALID,0,
2016-05-26, 09:08:04,VALID,920.224,VALID,0,INVALID,110.562,VALID,131.401,VALID,21.9818,VALID,27,VALID,0,
2016-05-26, 09:09:04,VALID,920.22,VALID,0,INVALID,110.265,VALID,137.74,VALID,21.9818,VALID,37,VALID,0,
2016-05-26, 09:10:04,VALID,920.213,VALID,0,INVALID,110.181,VALID,139.673,VALID,21.9623,VALID,64,VALID,0,
2016-05-26, 09:11:04,VALID,920.22,VALID,0,INVALID,110.379,VALID,130.434,VALID,21.9623,VALID,15,VALID,0,
2016-05-26, 09:12:04,VALID,920.214,VALID,0,INVALID,110.219,VALID,122.483,VALID,21.9233,VALID,9,VALID,0,
2016-05-26, 09:14:04,VALID,920.245,VALID,0,INVALID,110.021,VALID,131.508,VALID,21.8664,VALID,218,VALID,0,
2016-05-26, 09:15:04,VALID,920.264,VALID,0,INVALID,109.64,VALID,137.847,VALID,21.8274,VALID,144,VALID,0,
2016-05-26, 09:16:04,VALID,920.265,VALID,0,INVALID,109.914,VALID,133.12,VALID,21.8079,VALID,337,VALID,0,
2016-05-26, 09:17:04,VALID,920.218,VALID,0,INVALID,109.96,VALID,123.987,VALID,21.8079,VALID,70,VALID,0,
2016-05-26, 09:18:04,VALID,920.26,VALID,0,INVALID,109.983,VALID,130.756,VALID,21.7688,VALID,72,VALID,0,
2016-05-26, 09:19:04,VALID,920.249,VALID,0,INVALID,110.425,VALID,142.037,VALID,21.8274,VALID,55,VALID,0,
2016-05-26, 09:20:04,VALID,920.266,VALID,0,INVALID,110.318,VALID,136.88,VALID,21.8485,VALID,271,VALID,0,
2016-05-26, 09:21:04,VALID,920.266,VALID,0,INVALID,110.372,VALID,126.136,VALID,21.8664,VALID,11,VALID,0,
2016-05-26, 09:32:04,VALID,920.272,VALID,0,INVALID,111.279,VALID,129.681,VALID,21.6729,VALID,30,VALID,0.450781,
2016-05-26, 09:33:04,VALID,920.24,VALID,0,INVALID,111.348,VALID,134.087,VALID,21.6128,VALID,50,VALID,0,
2016-05-26, 09:34:04,VALID,920.274,VALID,0,INVALID,111.523,VALID,139.566,VALID,21.6501,VALID,22,VALID,1.08984,
2016-05-26, 09:35:04,VALID,920.263,VALID,0,INVALID,111.645,VALID,156.434,VALID,21.6501,VALID,37,VALID,0.924609,
2016-05-26, 09:36:04,VALID,920.247,VALID,0,INVALID,111.805,VALID,175.022,VALID,21.6908,VALID,21,VALID,0,
2016-05-26, 09:37:04,VALID,920.228,VALID,0,INVALID,111.767,VALID,190.063,VALID,21.7688,VALID,21,VALID,0,
2016-05-26, 09:38:04,VALID,920.247,VALID,0,INVALID,111.188,VALID,194.683,VALID,21.7867,VALID,356,VALID,0,
2016-05-26, 09:39:04,VALID,920.257,VALID,0,INVALID,111.05,VALID,194.146,VALID,21.8647,VALID,353,VALID,0,
2016-05-26, 09:40:04,VALID,920.244,VALID,0,INVALID,110.89,VALID,198.659,VALID,21.9818,VALID,19,VALID,0,
2016-05-26, 09:41:04,VALID,920.245,VALID,0,INVALID,110.128,VALID,191.568,VALID,22.0208,VALID,41,VALID,0,
2016-05-26, 09:42:04,VALID,920.265,VALID,0,INVALID,109.991,VALID,190.815,VALID,22.0598,VALID,35,VALID,0,
2016-05-26, 09:43:04,VALID,920.265,VALID,0,INVALID,109.831,VALID,186.948,VALID,22.0794,VALID,36,VALID,0,
2016-05-26, 09:44:04,VALID,920.276,VALID,0,INVALID,109.48,VALID,176.096,VALID,22.1184,VALID,32,VALID,0,
2016-05-26, 09:45:04,VALID,920.272,VALID,0,INVALID,109.091,VALID,169.005,VALID,22.1379,VALID,47,VALID,0,
2016-05-26, 09:46:04,VALID,920.257,VALID,0,VALID,104,VALID,168.253,VALID,22.1184,VALID,37,VALID,0,
2016-05-26, 09:47:04,VALID,920.297,VALID,0,VALID,104,VALID,165.352,VALID,22.0615,VALID,21,VALID,0,
2016-05-26, 09:48:04,VALID,920.291,VALID,0,VALID,104,VALID,162.881,VALID,21.964,VALID,21,VALID,0,
2016-05-26, 09:49:04,VALID,920.319,VALID,0,VALID,104,VALID,161.269,VALID,21.8664,VALID,3,VALID,0.003125,
2016-05-26, 09:50:04,VALID,920.312,VALID,0,INVALID,109.602,VALID,155.897,VALID,21.7688,VALID,26,VALID,0.811328,
2016-05-26, 09:51:04,VALID,920.287,VALID,0,INVALID,110.433,VALID,146.657,VALID,21.7493,VALID,3,VALID,1.36797,
2016-05-26, 09:52:04,VALID,920.28,VALID,0,INVALID,110.196,VALID,142.682,VALID,21.7103,VALID,23,VALID,0,
2016-05-26, 09:53:04,VALID,920.313,VALID,0,INVALID,110.517,VALID,140.855,VALID,21.7103,VALID,19,VALID,0,
2016-05-26, 09:54:04,VALID,920.3,VALID,0,INVALID,110.639,VALID,138.814,VALID,21.7493,VALID,357,VALID,0,
2016-05-26, 09:55:04,VALID,920.265,VALID,0,INVALID,109.869,VALID,144.938,VALID,21.6908,VALID,343,VALID,0,
2016-05-26, 09:56:04,VALID,920.256,VALID,0,INVALID,110.097,VALID,154.285,VALID,21.7087,VALID,16,VALID,0,
2016-05-26, 09:57:04,VALID,920.242,VALID,0,INVALID,110.006,VALID,163.203,VALID,21.6713,VALID,41,VALID,0,
2016-05-26, 09:58:04,VALID,920.243,VALID,0,INVALID,110.425,VALID,163.955,VALID,21.7493,VALID,327,VALID,0,
2016-05-26, 09:59:04,VALID,920.219,VALID,0,INVALID,110.219,VALID,169.864,VALID,21.7688,VALID,300,VALID,0,
2016-05-26, 10:00:04,VALID,920.188,VALID,0,INVALID,109.937,VALID,173.303,VALID,21.8079,VALID,353,VALID,0,
2016-05-26, 10:01:04,VALID,920.246,VALID,0,INVALID,109.808,VALID,169.005,VALID,21.8859,VALID,3,VALID,0,
2016-05-26, 10:02:04,VALID,920.238,VALID,0,INVALID,110.189,VALID,162.773,VALID,21.9444,VALID,22,VALID,0,
2016-05-26, 10:03:04,VALID,920.241,VALID,0,INVALID,110.09,VALID,167.608,VALID,22.003,VALID,338,VALID,0,
2016-05-26, 10:04:04,VALID,920.255,VALID,0,INVALID,109.678,VALID,171.906,VALID,22.042,VALID,5,VALID,0,
2016-05-26, 10:05:04,VALID,920.248,VALID,0,INVALID,109.221,VALID,165.03,VALID,22.042,VALID,21,VALID,0,
2016-05-26, 10:06:04,VALID,920.209,VALID,0,INVALID,109.251,VALID,155.145,VALID,22.042,VALID,21,VALID,0,
2016-05-26, 10:07:04,VALID,920.236,VALID,0,INVALID,109.655,VALID,149.128,VALID,22.0615,VALID,23,VALID,0,
2016-05-26, 10:08:04,VALID,920.252,VALID,0,INVALID,109.51,VALID,142.037,VALID,22.0794,VALID,18,VALID,0,
2016-05-26, 10:09:04,VALID,920.2,VALID,0,INVALID,109.114,VALID,134.624,VALID,22.1591,VALID,320,VALID,0,
2016-05-26, 10:10:04,VALID,920.205,VALID,0,VALID,104,VALID,132.153,VALID,22.1396,VALID,12,VALID,0,
2016-05-26, 10:11:04,VALID,920.238,VALID,0,VALID,104,VALID,132.367,VALID,22.1769,VALID,4,VALID,0,
2016-05-26, 10:12:04,VALID,920.192,VALID,0,VALID,104,VALID,145.583,VALID,22.2176,VALID,17,VALID,0,
2016-05-26, 10:13:04,VALID,920.179,VALID,0,VALID,104,VALID,148.054,VALID,22.1591,VALID,1,VALID,0,
2016-05-26, 10:14:04,VALID,920.18,VALID,0,VALID,104,VALID,145.153,VALID,22.081,VALID,7,VALID,0.00585938,
2016-05-26, 10:15:04,VALID,920.156,VALID,0,VALID,104,VALID,139.459,VALID,22.1201,VALID,23,VALID,0,
2016-05-26, 10:16:04,VALID,920.148,VALID,0,VALID,104,VALID,133.442,VALID,22.0989,VALID,25,VALID,0,
2016-05-26, 10:21:04,VALID,920.096,VALID,0,INVALID,110.761,VALID,128.285,VALID,21.7493,VALID,339,VALID,0,
2016-05-26, 10:22:04,VALID,920.096,VALID,0,INVALID,110.982,VALID,151.922,VALID,21.7493,VALID,44,VALID,0.192578,
2016-05-26, 10:23:04,VALID,920.072,VALID,0,INVALID,111.142,VALID,158.583,VALID,21.6891,VALID,30,VALID,0,
2016-05-26, 10:24:04,VALID,920.081,VALID,0,INVALID,111.752,VALID,171.154,VALID,21.6696,VALID,35,VALID,0,
2016-05-26, 10:25:04,VALID,920.093,VALID,0,INVALID,111.462,VALID,189.849,VALID,21.6501,VALID,8,VALID,0,
2016-05-26, 10:26:04,VALID,920.088,VALID,0,INVALID,111.645,VALID,206.717,VALID,21.7087,VALID,14,VALID,0,
2016-05-26, 10:27:04,VALID,920.056,VALID,0,INVALID,111.462,VALID,211.659,VALID,21.7883,VALID,340,VALID,0,
2016-05-26, 10:28:04,VALID,920.039,VALID,0,INVALID,110.463,VALID,208.758,VALID,21.7867,VALID,280,VALID,0,
2016-05-26, 10:29:04,VALID,919.99,VALID,0,INVALID,110.448,VALID,204.998,VALID,21.8647,VALID,14,VALID,0,
2016-05-26, 10:30:04,VALID,920.008,VALID,0,INVALID,110.326,VALID,196.08,VALID,22.003,VALID,14,VALID,0,
2016-05-26, 10:31:04,VALID,919.965,VALID,0,INVALID,110.212,VALID,196.188,VALID,22.0794,VALID,8,VALID,0,
2016-05-26, 10:32:04,VALID,919.951,VALID,0,INVALID,109.953,VALID,196.51,VALID,22.1769,VALID,6,VALID,0,
2016-05-26, 10:33:04,VALID,919.986,VALID,0,INVALID,109.8,VALID,193.931,VALID,22.294,VALID,7,VALID,0,
2016-05-26, 10:34:04,VALID,919.959,VALID,0,VALID,104,VALID,183.402,VALID,22.294,VALID,353,VALID,0,
2016-05-26, 10:35:04,VALID,919.943,VALID,0,VALID,104,VALID,169.972,VALID,22.3525,VALID,18,VALID,0,
2016-05-26, 10:36:04,VALID,919.921,VALID,0,VALID,104,VALID,174.484,VALID,22.4323,VALID,2,VALID,0,
2016-05-26, 10:37:04,VALID,919.917,VALID,0,VALID,104,VALID,190.171,VALID,22.4306,VALID,2,VALID,0,
2016-05-26, 10:38:04,VALID,919.878,VALID,0,VALID,104,VALID,203.708,VALID,22.4713,VALID,2,VALID,0,
2016-05-26, 10:39:04,VALID,919.867,VALID,0,VALID,104,VALID,209.403,VALID,22.4696,VALID,21,VALID,0,
2016-05-26, 10:40:04,VALID,919.83,VALID,0,VALID,104,VALID,206.287,VALID,22.4696,VALID,34,VALID,0,
2016-05-26, 10:41:04,VALID,919.811,VALID,0,VALID,104,VALID,201.882,VALID,22.5086,VALID,46,VALID,0,
2016-05-26, 10:42:04,VALID,919.794,VALID,0,VALID,104,VALID,197.047,VALID,22.5086,VALID,30,VALID,0,
2016-05-26, 10:43:04,VALID,919.794,VALID,0,VALID,104,VALID,186.625,VALID,22.5672,VALID,29,VALID,0,
2016-05-26, 10:44:04,VALID,919.744,VALID,0,VALID,104,VALID,173.303,VALID,22.6257,VALID,13,VALID,0,
2016-05-26, 10:45:04,VALID,919.755,VALID,0,VALID,104,VALID,158.368,VALID,22.6062,VALID,36,VALID,0,
2016-05-26, 10:46:04,VALID,919.747,VALID,0,VALID,104,VALID,143.004,VALID,22.5672,VALID,67,VALID,0,
2016-05-26, 10:47:04,VALID,919.715,VALID,0,VALID,104,VALID,129.252,VALID,22.4891,VALID,24,VALID,0,
2016-05-26, 10:49:04,VALID,919.652,VALID,0,VALID,104,VALID,137.31,VALID,22.4306,VALID,43,VALID,0,
2016-05-26, 10:50:04,VALID,919.666,VALID,0,INVALID,109.244,VALID,165.997,VALID,22.3525,VALID,41,VALID,0,
2016-05-26, 10:51:04,VALID,919.607,VALID,0,INVALID,109.564,VALID,185.229,VALID,22.3135,VALID,35,VALID,0,
2016-05-26, 10:52:04,VALID,919.584,VALID,0,INVALID,109.434,VALID,198.121,VALID,22.294,VALID,20,VALID,0,
2016-05-26, 10:53:04,VALID,919.56,VALID,0,VALID,104,VALID,203.494,VALID,22.255,VALID,20,VALID,0,
2016-05-26, 10:54:04,VALID,919.538,VALID,0,VALID,104,VALID,210.047,VALID,22.1964,VALID,25,VALID,0,
2016-05-26, 10:55:04,VALID,919.534,VALID,0,VALID,104,VALID,223.37,VALID,22.0989,VALID,29,VALID,0,
2016-05-26, 10:56:04,VALID,919.512,VALID,0,INVALID,109.381,VALID,238.842,VALID,22.1184,VALID,23,VALID,0,
2016-05-26, 10:57:04,VALID,919.478,VALID,0,INVALID,109.259,VALID,245.073,VALID,22.0794,VALID,294,VALID,0,
2016-05-26, 10:58:04,VALID,919.513,VALID,0,VALID,104,VALID,239.271,VALID,22.0013,VALID,260,VALID,0,
2016-05-26, 10:59:04,VALID,919.475,VALID,0,VALID,104,VALID,220.254,VALID,22.0403,VALID,260,VALID,0,
2016-05-26, 11:00:04,VALID,919.481,VALID,0,VALID,104,VALID,196.08,VALID,22.0208,VALID,242,VALID,0.0171875,
2016-05-26, 11:01:04,VALID,919.493,VALID,0,INVALID,109.617,VALID,180.501,VALID,22.0013,VALID,276,VALID,0,
2016-05-26, 11:02:04,VALID,919.493,VALID,0,INVALID,110.608,VALID,175.666,VALID,22.0794,VALID,352,VALID,0,
2016-05-26, 11:03:04,VALID,919.479,VALID,0,INVALID,110.257,VALID,169.542,VALID,22.0794,VALID,33,VALID,0,
2016-05-26, 11:04:04,VALID,919.456,VALID,0,INVALID,110.745,VALID,158.691,VALID,22.1184,VALID,30,VALID,0,
2016-05-26, 11:05:04,VALID,919.481,VALID,0,INVALID,111.012,VALID,167.501,VALID,22.1184,VALID,73,VALID,0,
2016-05-26, 11:06:04,VALID,919.485,VALID,0,INVALID,110.433,VALID,185.443,VALID,22.0989,VALID,358,VALID,0,
2016-05-26, 11:07:04,VALID,919.43,VALID,0,INVALID,109.518,VALID,195.221,VALID,21.9394,VALID,301,VALID,0,
2016-05-26, 11:08:04,VALID,919.465,VALID,0,INVALID,109.96,VALID,183.832,VALID,21.8826,VALID,313,VALID,0,
2016-05-26, 11:09:04,VALID,919.409,VALID,0,INVALID,110.204,VALID,162.773,VALID,21.8631,VALID,311,VALID,0,
2016-05-26, 11:10:04,VALID,919.419,VALID,0,INVALID,110.219,VALID,146.013,VALID,21.9233,VALID,311,VALID,0,
2016-05-26, 11:11:04,VALID,919.403,VALID,0,INVALID,110.555,VALID,135.806,VALID,22.0208,VALID,311,VALID,0,
2016-05-26, 11:12:04,VALID,919.414,VALID,0,INVALID,109.884,VALID,146.979,VALID,22.0208,VALID,310,VALID,0,
2016-05-26, 11:13:04,VALID,919.404,VALID,0,INVALID,110.486,VALID,175.559,VALID,22.0598,VALID,312,VALID,0,
2016-05-26, 11:14:04,VALID,919.413,VALID,0,INVALID,110.494,VALID,189.956,VALID,22.0972,VALID,297,VALID,0,
2016-05-26, 11:15:04,VALID,919.384,VALID,0,INVALID,110.128,VALID,182.757,VALID,22.1379,VALID,50,VALID,0,
2016-05-26, 11:16:04,VALID,919.365,VALID,0,VALID,104,VALID,175.559,VALID,22.1379,VALID,9,VALID,0,
2016-05-26, 11:17:04,VALID,919.327,VALID,0,VALID,104,VALID,168.36,VALID,22.1167,VALID,341,VALID,0,
2016-05-26, 11:18:04,VALID,919.292,VALID,0,VALID,104,VALID,161.591,VALID,22.1379,VALID,80,VALID,0,
2016-05-26, 11:19:04,VALID,919.248,VALID,0,VALID,104,VALID,163.525,VALID,22.0225,VALID,85,VALID,0,
2016-05-26, 11:20:04,VALID,919.198,VALID,0,INVALID,109.427,VALID,173.947,VALID,21.8664,VALID,83,VALID,0,
2016-05-26, 11:21:04,VALID,919.164,VALID,0,INVALID,110.913,VALID,193.609,VALID,21.8469,VALID,25,VALID,1.57344,
2016-05-26, 11:22:04,VALID,919.153,VALID,0,INVALID,111.37,VALID,219.932,VALID,21.8842,VALID,15,VALID,0,
2016-05-26, 11:23:04,VALID,919.156,VALID,0,INVALID,110.593,VALID,244.214,VALID,21.9054,VALID,340,VALID,0,
2016-05-26, 11:24:04,VALID,919.116,VALID,0,INVALID,109.777,VALID,264.52,VALID,21.8859,VALID,9,VALID,0,
2016-05-26, 11:25:04,VALID,919.134,VALID,0,INVALID,110.326,VALID,267.314,VALID,21.9054,VALID,13,VALID,0,
2016-05-26, 11:26:04,VALID,919.112,VALID,0,INVALID,109.693,VALID,271.611,VALID,21.9249,VALID,18,VALID,0,
2016-05-26, 11:27:04,VALID,919.112,VALID,0,INVALID,110.128,VALID,279.132,VALID,21.9623,VALID,33,VALID,1.05234,
2016-05-26, 11:28:04,VALID,919.122,VALID,0,INVALID,109.93,VALID,278.487,VALID,22.0615,VALID,21,VALID,0.0640625,
2016-05-26, 11:29:04,VALID,919.143,VALID,0,INVALID,109.083,VALID,263.231,VALID,22.1379,VALID,348,VALID,0,
2016-05-26, 11:30:04,VALID,919.11,VALID,0,VALID,104,VALID,250.983,VALID,22.1005,VALID,12,VALID,0.0289063,
2016-05-26, 11:31:04,VALID,919.116,VALID,0,VALID,104,VALID,265.165,VALID,22.0989,VALID,355,VALID,0,
2016-05-26, 11:32:04,VALID,919.073,VALID,0,VALID,104,VALID,294.066,VALID,22.0989,VALID,8,VALID,1.36992,
2016-05-26, 11:33:04,VALID,919.075,VALID,0,VALID,104,VALID,308.034,VALID,21.9623,VALID,2,VALID,0,
2016-05-26, 11:34:04,VALID,919.035,VALID,0,VALID,104,VALID,315.34,VALID,21.9233,VALID,334,VALID,0,
2016-05-26, 11:35:04,VALID,919.03,VALID,0,VALID,104,VALID,317.703,VALID,21.9818,VALID,8,VALID,0.0015625,
2016-05-26, 11:36:04,VALID,919.017,VALID,0,VALID,104,VALID,322.646,VALID,22.0794,VALID,348,VALID,0,
2016-05-26, 11:37:04,VALID,918.98,VALID,0,VALID,104,VALID,327.051,VALID,22.1184,VALID,59,VALID,0,
2016-05-26, 11:38:04,VALID,918.983,VALID,0,VALID,104,VALID,333.068,VALID,21.9623,VALID,64,VALID,0,
2016-05-26, 11:39:04,VALID,918.937,VALID,0,INVALID,109.266,VALID,333.282,VALID,21.9233,VALID,56,VALID,0,
2016-05-26, 11:40:04,VALID,918.893,VALID,0,INVALID,109.388,VALID,330.167,VALID,21.9428,VALID,96,VALID,0,
2016-05-26, 11:41:04,VALID,918.902,VALID,0,INVALID,109.282,VALID,335.754,VALID,21.9428,VALID,69,VALID,0,
2016-05-26, 11:42:04,VALID,918.831,VALID,0,VALID,104,VALID,350.043,VALID,21.8452,VALID,70,VALID,0,
2016-05-26, 11:43:04,VALID,918.82,VALID,0,VALID,104,VALID,368.738,VALID,21.7867,VALID,82,VALID,0,
2016-05-26, 11:44:04,VALID,918.8,VALID,0,INVALID,109.602,VALID,387.433,VALID,21.8045,VALID,92,VALID,0,
2016-05-26, 11:45:04,VALID,918.765,VALID,0,INVALID,109.533,VALID,404.516,VALID,21.8631,VALID,53,VALID,0,
2016-05-26, 11:46:04,VALID,918.764,VALID,0,VALID,104,VALID,422.566,VALID,21.9606,VALID,55,VALID,0,
2016-05-26, 11:47:04,VALID,918.763,VALID,0,VALID,104,VALID,439.649,VALID,22.0972,VALID,39,VALID,0,
2016-05-26, 11:48:04,VALID,918.726,VALID,0,VALID,104,VALID,453.724,VALID,22.2533,VALID,36,VALID,0,
2016-05-26, 11:49:04,VALID,918.735,VALID,0,VALID,104,VALID,470.485,VALID,22.4484,VALID,65,VALID,0,
2016-05-26, 11:50:04,VALID,918.721,VALID,0,VALID,104,VALID,449.964,VALID,22.7021,VALID,65,VALID,0,
2016-05-26, 11:51:04,VALID,918.7,VALID,0,VALID,95.2393,VALID,426.649,VALID,22.9362,VALID,65,VALID,0,
2016-05-26, 11:52:04,VALID,918.7,VALID,0,VALID,92.9676,VALID,418.268,VALID,22.9948,VALID,96,VALID,0,
2016-05-26, 11:53:04,VALID,918.634,VALID,0,VALID,95.5595,VALID,421.599,VALID,23.0143,VALID,56,VALID,0,
2016-05-26, 11:54:04,VALID,918.633,VALID,0,VALID,98.1134,VALID,426.004,VALID,22.9948,VALID,46,VALID,0,
2016-05-26, 11:55:04,VALID,918.588,VALID,0,VALID,91.0007,VALID,423.64,VALID,23.0143,VALID,47,VALID,0,
2016-05-26, 11:56:04,VALID,918.628,VALID,0,VALID,96.8403,VALID,421.277,VALID,23.0728,VALID,8,VALID,0,
2016-05-26, 11:57:04,VALID,918.607,VALID,0,VALID,93.707,VALID,427.293,VALID,23.2094,VALID,27,VALID,0,
2016-05-26, 11:58:04,VALID,918.597,VALID,0,VALID,98.3116,VALID,456.517,VALID,23.3265,VALID,165,VALID,0,
2016-05-26, 11:59:04,VALID,918.598,VALID,0,VALID,89.6514,VALID,517.222,VALID,23.4241,VALID,138,VALID,0,
2016-05-26, 12:00:04,VALID,918.544,VALID,0,VALID,90.4366,VALID,541.933,VALID,23.5608,VALID,41,VALID,0,
2016-05-26, 12:01:04,VALID,918.525,VALID,0,VALID,84.6504,VALID,527.429,VALID,23.6779,VALID,64,VALID,0,
2016-05-26, 12:02:04,VALID,918.529,VALID,0,VALID,80.7777,VALID,503.792,VALID,23.5803,VALID,126,VALID,0,
2016-05-26, 12:03:04,VALID,918.546,VALID,0,VALID,80.4423,VALID,489.18,VALID,23.5803,VALID,126,VALID,0,
2016-05-26, 12:04:04,VALID,918.514,VALID,0,VALID,80.8158,VALID,485.312,VALID,23.6584,VALID,134,VALID,0,
2016-05-26, 12:05:04,VALID,918.544,VALID,0,VALID,81.3952,VALID,486.386,VALID,23.795,VALID,134,VALID,0,
2016-05-26, 12:06:04,VALID,918.492,VALID,0,VALID,81.5705,VALID,498.849,VALID,23.9316,VALID,163,VALID,0,
2016-05-26, 12:07:04,VALID,918.486,VALID,0,VALID,79.9315,VALID,493.477,VALID,24.0097,VALID,196,VALID,0,
2016-05-26, 12:08:04,VALID,918.482,VALID,0,VALID,81.6773,VALID,485.204,VALID,24.1073,VALID,167,VALID,0,
2016-05-26, 12:09:04,VALID,918.481,VALID,0,VALID,80.7625,VALID,474.46,VALID,24.3221,VALID,100,VALID,0,
2016-05-26, 12:10:04,VALID,918.457,VALID,0,VALID,77.3319,VALID,472.096,VALID,24.4178,VALID,36,VALID,0,
2016-05-26, 12:11:04,VALID,918.471,VALID,0,VALID,76.9279,VALID,474.353,VALID,24.3611,VALID,57,VALID,0,
2016-05-26, 12:12:04,VALID,918.474,VALID,0,VALID,77.5835,VALID,483.378,VALID,24.2421,VALID,28,VALID,0,
2016-05-26, 12:13:04,VALID,918.47,VALID,0,VALID,79.2988,VALID,467.476,VALID,24.1641,VALID,26,VALID,0,
2016-05-26, 12:14:04,VALID,918.46,VALID,0,VALID,79.8553,VALID,452.864,VALID,24.125,VALID,59,VALID,0,
2016-05-26, 12:15:04,VALID,918.446,VALID,0,VALID,80.427,VALID,435.244,VALID,24.125,VALID,60,VALID,0,
2016-05-26, 12:16:04,VALID,918.425,VALID,0,VALID,80.3432,VALID,416.442,VALID,24.2421,VALID,356,VALID,0,
2016-05-26, 12:17:04,VALID,918.417,VALID,0,VALID,80.488,VALID,398.714,VALID,24.283,VALID,342,VALID,0,
2016-05-26, 12:18:04,VALID,918.42,VALID,0,VALID,81.0903,VALID,385.821,VALID,24.283,VALID,304,VALID,0,
2016-05-26, 12:19:04,VALID,918.406,VALID,0,VALID,80.8921,VALID,372.176,VALID,24.3221,VALID,218,VALID,0,
2016-05-26, 12:20:04,VALID,918.369,VALID,0,VALID,79.0701,VALID,356.49,VALID,24.3416,VALID,242,VALID,0,
2016-05-26, 12:21:04,VALID,918.403,VALID,0,VALID,80.0611,VALID,337.365,VALID,24.3026,VALID,239,VALID,0,
2016-05-26, 12:22:04,VALID,918.383,VALID,0,VALID,80.023,VALID,316.414,VALID,24.3416,VALID,235,VALID,0,
2016-05-26, 12:23:04,VALID,918.338,VALID,0,VALID,79.2912,VALID,294.819,VALID,24.4178,VALID,235,VALID,0,
2016-05-26, 12:24:04,VALID,918.332,VALID,0,VALID,78.3687,VALID,274.727,VALID,24.4197,VALID,235,VALID,0,
2016-05-26, 12:25:04,VALID,918.268,VALID,0,VALID,78.8947,VALID,256.247,VALID,24.4783,VALID,222,VALID,0,
2016-05-26, 12:26:04,VALID,918.285,VALID,0,VALID,78.0866,VALID,239.809,VALID,24.4978,VALID,55,VALID,0,
2016-05-26, 12:27:04,VALID,918.283,VALID,0,VALID,77.1109,VALID,226.486,VALID,24.3026,VALID,49,VALID,0,
2016-05-26, 12:28:04,VALID,918.207,VALID,0,VALID,78.9252,VALID,216.386,VALID,24.1073,VALID,52,VALID,0,
2016-05-26, 12:29:04,VALID,918.21,VALID,0,VALID,77.6521,VALID,209.403,VALID,23.9884,VALID,53,VALID,0,
2016-05-26, 12:30:04,VALID,918.164,VALID,0,VALID,77.6902,VALID,205.857,VALID,23.9493,VALID,53,VALID,0,
2016-05-26, 12:31:04,VALID,918.117,VALID,0,VALID,77.6902,VALID,205.857,VALID,23.756,VALID,47,VALID,0,
2016-05-26, 12:32:04,VALID,918.091,VALID,0,VALID,79.7333,VALID,210.047,VALID,23.5608,VALID,47,VALID,0,
2016-05-26, 12:33:04,VALID,918.04,VALID,0,VALID,80.6862,VALID,217.246,VALID,23.4437,VALID,47,VALID,0,
2016-05-26, 12:34:04,VALID,918.018,VALID,0,VALID,82.2719,VALID,225.949,VALID,23.4241,VALID,47,VALID,0,
2016-05-26, 12:35:04,VALID,917.988,VALID,0,VALID,80.8082,VALID,234.974,VALID,23.4046,VALID,47,VALID,0,
2016-05-26, 12:36:04,VALID,917.942,VALID,0,VALID,81.9441,VALID,242.602,VALID,23.4046,VALID,75,VALID,0,
2016-05-26, 12:37:04,VALID,917.905,VALID,0,VALID,83.7813,VALID,248.511,VALID,23.4241,VALID,75,VALID,0,